Regional Weather Roundup
Issued by NWS Kansas City/Pleasant Hill, MO

Home | Current Version | Previous Version | Graphics & Text | Print | Product List | Glossary Off
Versions: 1 2 3 4 5 6 7 8 9 10 11 12 13 14 15 16 17 18 19 20 21 22 23 24 25 26 27 28 29 30 31 32 33 34 35 36 37 38 39 40 41 42 43 44 45 46 47 48 49 50

000
ASUS43 KEAX 211710
RWREAX

WEATHER ROUNDUP FOR EASTERN KANSAS AND NORTHWEST MISSOURI
NATIONAL WEATHER SERVICE KANSAS CITY/PLEASANT HILL MO
1200 PM CDT MON MAY 21 2018

KSZ040-057-103>105-MOZ028-029-037-043-211800-
...KANSAS CITY METROPOLITAN AREA...

CITY           SKY/WX    TMP DP  RH WIND       PRES   REMARKS
K.C. INTL      CLOUDY    63  58  83 W7        30.08F
K.C. DOWNTOWN  CLOUDY    64  56  75 SW8       30.08S
LEES SUMMIT    PTSUNNY   67  59  75 W10       30.08S
OLATHE - IXD   CLOUDY    63  57  81 SW8       30.10S
OLATHE - OJC   CLOUDY    61  56  83 SW7       30.09S
LAWRENCE       CLOUDY    62  57  83 NW8       30.09F

$$

MOZ001>008-011>017-020>025-030>033-038>040-044>046-053-054-211800-
...NORTHERN AND CENTRAL MISSOURI...

CITY           SKY/WX    TMP DP  RH WIND       PRES   REMARKS
ST. JOSEPH     CLOUDY    63  59  87 SW6       30.07F
MOSBY          CLOUDY    64  59  82 W9        30.07S
WARRENSBURG    CLOUDY    68  61  77 SW10      30.07S
WHITEMAN AFB   PTSUNNY   68  64  88 W10       30.03S
CLINTON        CLOUDY    66  64  94 SW6       30.09R FOG
SEDALIA        CLOUDY    70  67  90 SW7       30.07S
WARSAW         NOT AVBL
CHILLICOTHE      N/A     70  64  81 VRB3      30.06S
KIRKSVILLE     CLOUDY    73  64  73 SW9G20    30.04S

$$

MOZ041-047>049-056>058-063>065-088>090-097-211800-
...EASTERN AND SOUTHERN MISSOURI...

CITY           SKY/WX    TMP DP  RH WIND       PRES   REMARKS
ST. LOUIS INTL CLOUDY    75  68  78 W6        30.06S
SPIRIT OF STL  CLOUDY    73  68  84 SW6       30.04S
COLUMBIA       CLOUDY    73  65  75 SW12      30.05F
JEFFERSON CITY CLOUDY    72  65  78 W10       30.04F
ROLLA          CLOUDY    72  66  81 SW10      30.07F
OSAGE BEACH    CLOUDY    73  68  84 W8        30.07S
SPRINGFIELD    PTSUNNY   75  64  68 SW9       30.08S
BRANSON        PTSUNNY   75  66  73 S7        30.10S
JOPLIN         PTSUNNY   70  64  81 VRB5      30.11R
WEST PLAINS    CLOUDY    74  67  78 VRB6      30.09S

$$

IAZ060-094-KSZ022-034>040-054-083-096-NEZ052-066-093-211800-
...KANSAS...SOUTHEAST NEBRASKA AND IOWA...

CITY           SKY/WX    TMP DP  RH WIND       PRES   REMARKS
TOPEKA         CLOUDY    62  57  83 W6        30.09F
MANHATTAN      SUNNY     68  55  63 VRB3      30.08F
EMPORIA        MOSUNNY   66  57  72 SW5       30.10S
CHANUTE        MOSUNNY   67  59  75 VRB3      30.11F
WICHITA        MOSUNNY   70  59  68 SW6       30.11S
OMAHA          CLOUDY    62  56  80 W8        30.05S
LINCOLN        PTSUNNY   66  54  65 W8        30.08S
FALLS CITY     MOSUNNY   68  55  63 MISG      30.05F
LAMONI         CLOUDY    66  61  84 W8        30.04S
DES MOINES     CLOUDY    62  59  90 CALM      30.02S

$$




USA.gov is the U.S. government's official web portal to all federal, state and local government web resources and services.